Kosmos-732

operational
NORAD ID: 7820 Int'l Des: 1975-045 Owner: GUKOSR Country: SU
LEOCIRCULAR

Kosmos-732について

説明を読み込み中...

リアルタイム位置

3D地球を読み込み中...

次回通過

高度履歴

Altitude vs Time

uPlot chart will show altitude changes over time

軌道要素

1 7820U 75045A 26061.19148443 .00000002 00000-0 10722-3 0 9994
2 7820 74.0178 138.4030 0042811 346.5746 41.2277 12.56722609328833
Epoch: Mar 2, 2026 • Age: 29 hours

現在のステータス

高度 1469.7 km
速度 7.12 km/s
衛星直下点 -39.35°S, 101.39°E
タイプ other

大規模コンステレーション

Loading constellations...